CW7448 Weather Reports


Display with metric or nautical units.
time (UTC)temp
F
wind
direction
speed
MPH
gust
MPH
rain 1hr
in
rain 24hr
in
rain mn
in
humidity
%
barometer
mb
20170527131324 57 218 5.0 9.0 0.00 0.02 0.01 69 1010.5
20170527130324 57 66 0.0 8.0 0.00 0.02 0.01 70 1010.3
20170527125323 57 297 6.0 25.0 0.00 0.03 0.01 67 1010.3
20170527120322 54 337 0.0 8.0 0.00 0.05 0.01 53 1009.9
20170527114321 54 34 1.0 7.0 0.00 0.05 0.01 48 1009.9
20170527111320 54 39 0.0 6.0 0.00 0.06 0.01 37 1009.8
20170527110320 54 9 1.0 9.0 0.00 0.06 0.01 34 1009.6
20170527105320 54 213 0.0 8.0 0.00 0.06 0.01 33 1009.6
20170527104319 54 36 2.0 8.0 0.00 0.06 0.01 32 1009.6
20170527103319 54 271 0.0 4.0 0.00 0.06 0.01 32 1009.5
20170527102319 54 264 0.0 0.0 0.00 0.06 0.01 32 1009.4
20170527101319 53 265 0.0 0.0 0.00 0.07 0.01 32 1009.3
20170527100619 53 270 0.0 5.0 0.00 0.10 0.01 32 1009.1
20170526213326 60 224 0.0 9.0 0.00 1.45 0.95 45 1001.7
20170526212326 60 223 0.0 4.0 0.00 1.45 0.95 44 1001.7
20170526210325 60 281 0.0 3.0 0.00 1.45 0.95 47 1001.6
20170526205325 60 263 0.0 6.0 0.00 1.45 0.95 49 1001.5
20170526201324 60 277 0.0 10.0 0.00 1.45 0.95 48 1001.4
20170526200323 59 298 10.0 13.0 0.00 1.45 0.95 46 1001.3
20170526192322 58 259 0.0 10.0 0.00 1.45 0.95 44 1001.3
20170526191322 58 207 3.0 6.0 0.00 1.45 0.95 43 1001.3
20170526190322 58 286 0.0 9.0 0.00 1.45 0.95 41 1001.2
20170526182321 56 204 1.0 4.0 0.00 1.46 0.95 37 1001.0
20170526180320 56 232 5.0 6.0 0.00 1.46 0.95 36 1000.9
20170526175320 56 229 0.0 6.0 0.00 1.46 0.95 36 1000.8
20170526174320 56 232 0.0 6.0 0.00 1.46 0.95 37 1000.7
20170526173319 56 269 0.0 6.0 0.00 1.46 0.95 38 1000.6
20170526171319 56 253 3.0 14.0 0.00 1.47 0.95 42 1000.3
20170526163318 57 242 1.0 15.0 0.00 1.49 0.95 43 1000.1
20170526160317 57 282 5.0 13.0 0.00 1.51 0.95 32 999.7
20170526154316 56 217 0.0 7.0 0.00 1.53 0.95 34 999.6
20170526153316 56 267 0.0 6.0 0.00 1.53 0.95 34 999.6
20170526151315 55 238 0.0 11.0 0.00 1.53 0.95 33 999.3
20170526150315 56 211 0.0 7.0 0.00 1.53 0.95 31 999.4
20170526145315 55 67 7.0 14.0 0.00 1.53 0.95 30 999.1
20170526143344 55 68 8.0 8.0 0.00 1.53 0.95 30 998.8
20170526142314 54 21 0.0 11.0 0.01 1.53 0.95 30 998.7
20170526135313 53 34 0.0 14.0 0.02 1.53 0.95 31 998.7